CCM26E LFKF-LFML

Flight info

Callsign CCM26E
Flight time N/A
Altitude 24000
Route AJO Z154 TINOT
Aircraft A20N/M-SDE2E3FGHIRWXY/LB1

Departure

Time N/A
Airport Figari Sud-Corse Airport (LFKF)

Arrival

Time 2026-05-06 19:49
Airport Marseille Provence Airport (LFML)
Time Latitude Longitude Altitude Speed Heading
2026-05-06 19:38 42.98613 5.08601 13553 ft 294 kts 327°
2026-05-06 19:38 43.00365 5.07227 13151 ft 292 kts 327°
2026-05-06 19:38 43.02128 5.05843 12745 ft 290 kts 328°
2026-05-06 19:38 43.03862 5.04470 12343 ft 289 kts 327°
2026-05-06 19:39 43.05582 5.03101 11943 ft 288 kts 328°
2026-05-06 19:39 43.07304 5.01725 11465 ft 290 kts 327°
2026-05-06 19:39 43.09065 5.00308 10789 ft 298 kts 327°
2026-05-06 19:39 43.10875 4.98847 10107 ft 299 kts 328°
2026-05-06 19:40 43.12628 4.97428 9489 ft 291 kts 328°
2026-05-06 19:40 43.14330 4.96047 8992 ft 279 kts 327°
2026-05-06 19:40 43.15969 4.94715 8449 ft 270 kts 328°
2026-05-06 19:40 43.17615 4.93536 7738 ft 270 kts 341°
2026-05-06 19:41 43.19471 4.93343 7002 ft 272 kts
2026-05-06 19:41 43.21185 4.94379 6332 ft 274 kts 37°
2026-05-06 19:41 43.22345 4.96416 5864 ft 278 kts 65°
2026-05-06 19:41 43.22697 4.98986 5482 ft 279 kts 92°
2026-05-06 19:42 43.22244 5.01565 5105 ft 279 kts 109°
2026-05-06 19:42 43.21653 5.04104 4707 ft 278 kts 96°
2026-05-06 19:42 43.21897 5.06666 4303 ft 273 kts 66°
2026-05-06 19:42 43.22699 5.08992 3959 ft 271 kts 61°
2026-05-06 19:43 43.23531 5.11329 3575 ft 271 kts 63°
2026-05-06 19:43 43.24281 5.13659 3215 ft 271 kts 65°
2026-05-06 19:43 43.24984 5.16066 3004 ft 268 kts 67°
2026-05-06 19:43 43.25647 5.18471 2999 ft 270 kts 68°
2026-05-06 19:44 43.26284 5.20868 2995 ft 271 kts 68°
2026-05-06 19:44 43.26922 5.23313 2995 ft 270 kts 68°
2026-05-06 19:44 43.27551 5.25727 2988 ft 265 kts 68°
2026-05-06 19:44 43.28146 5.28032 2985 ft 249 kts 68°
2026-05-06 19:45 43.28706 5.30201 2983 ft 234 kts 68°
2026-05-06 19:45 43.29478 5.32094 2971 ft 227 kts 37°
2026-05-06 19:45 43.30833 5.32900 2963 ft 204 kts 354°
2026-05-06 19:45 43.32154 5.32439 3056 ft 187 kts 334°
2026-05-06 19:46 43.33299 5.31769 3056 ft 169 kts 334°
2026-05-06 19:46 43.34355 5.31199 2926 ft 158 kts 336°
2026-05-06 19:46 43.35353 5.30720 2751 ft 146 kts 338°
2026-05-06 19:46 43.36303 5.30302 2453 ft 142 kts 339°
2026-05-06 19:47 43.37535 5.29777 2106 ft 137 kts 332°
2026-05-06 19:47 43.38074 5.29324 2014 ft 136 kts 319°
2026-05-06 19:47 43.38772 5.28416 1737 ft 139 kts 311°
2026-05-06 19:47 43.39458 5.27501 1429 ft 137 kts 313°
2026-05-06 19:48 43.40119 5.26551 1139 ft 137 kts 311°
2026-05-06 19:48 43.40779 5.25621 868 ft 137 kts 311°
2026-05-06 19:48 43.41434 5.24695 588 ft 136 kts 311°
2026-05-06 19:48 43.42094 5.23750 319 ft 135 kts 311°
2026-05-06 19:49 43.42750 5.22819 158 ft 136 kts 311°
2026-05-06 19:49 43.43411 5.21885 50 ft 135 kts 310°
2026-05-06 19:49 43.43864 5.21223 30 ft 52 kts 314°
2026-05-06 19:49 43.44025 5.21001 25 ft 27 kts 315°
2026-05-06 19:50 43.44124 5.20994 24 ft 8 kts 47°
2026-05-06 19:50 43.44156 5.21068 25 ft 9 kts 71°
2026-05-06 19:50 43.44147 5.21154 26 ft 9 kts 122°
2026-05-06 19:50 43.44104 5.21224 27 ft 9 kts 134°
2026-05-06 19:51 43.44064 5.21278 28 ft 5 kts 135°
2026-05-06 19:51 43.44040 5.21311 29 ft 4 kts 134°
2026-05-06 19:51 43.44016 5.21342 30 ft 5 kts 136°
2026-05-06 19:51 43.43982 5.21392 30 ft 8 kts 131°
2026-05-06 19:52 43.43937 5.21464 32 ft 11 kts 120°
2026-05-06 19:52 43.43946 5.21582 34 ft 15 kts 52°
2026-05-06 19:52 43.43962 5.21715 35 ft 15 kts 123°
2026-05-06 19:52 43.43895 5.21819 38 ft 14 kts 133°
2026-05-06 19:53 43.43827 5.21915 41 ft 13 kts 133°
2026-05-06 19:53 43.43787 5.22020 44 ft 13 kts 75°
2026-05-06 19:53 43.43830 5.22094 44 ft 6 kts 44°
2026-05-06 19:53 43.43867 5.22143 43 ft 8 kts 43°
2026-05-06 19:54 43.43908 5.22197 43 ft 7 kts 47°
2026-05-06 19:54 43.43927 5.22237 43 ft 3 kts 60°
2026-05-06 19:54 43.43934 5.22252 43 ft 0 kts 60°
2026-05-06 19:54 43.43934 5.22253 42 ft 0 kts 61°